Project,Study,Ord_Occ,Event_Num,Cast_ID,Date_Time_UTC,Date_Time_PST,Lat_Dec,Lon_Dec,Sta_ID,Line,Sta,Depth,Pressure,PrQ,Temp1,Temp1Q,Temp2,Temp2Q,TempAve,Salt1,Salt1Q,Salt1_Corr,Salt2,Salt2Q,Salt2_Corr,SaltAve_Corr,Ox1,Ox1Q,Ox1_CruiseCorr,Ox1_StaCorr,Ox2,Ox2Q,Ox2_CruiseCorr,Ox2_StaCorr,OxAve_StaCorr,Ox1uM,Ox1uM_CruiseCorr,Ox1uM_StaCorr,Ox2uM,Ox2uM_CruiseCorr,Ox2uM_StaCorr,OxAveuM_StaCorr,FluorV,FluorQ,EstChl_CruiseCorr,EstChl_StaCorr,ISUSV,ISUSQ,EstNO3_CruiseCorr,EstNO3_StaCorr,SigThetaTS1,SigThetaTS1Q,SigThetaTS2,SigThetaTS2Q,BAT,XMiss,TransQ,pH,pHQ,SPAR,SPARQ,PAR,PARQ,PoT1,PoT2,DynHt,SVA,OxSat1,OxSat2,BTL_Depth,BTL_Temp,SaltB,OxB,OxBuM,Chl-a,Phaeo,NO3,NO2,NH4,PO4,SIL
CalCOFI,2007SR,055,57,2007_055u,23-Jul-2020 20:08:11,23-Jul-2020 12:08:11,34.31703,-120.80200,080.0 055.0,080.0,055.0,516.000,520.376,,6.6373,,6.6366,,6.6370,34.2801,,34.2803,34.2818,,34.2834,34.2819,0.4149,,0.4158,0.3905,2.1300,,1.1437,0.8701,0.6303,18.043,18.3470,35.9871,92.635,,54.5336,45.2604,0.0326,,,,-99.0,,-99.0,-99.0,26.9073,,26.9087,,0.6443,85.1223,,7.541,,2.1806E+03,,6.5472E-02,,6.5895,6.5887,0.8729,,6.065,31.141,,,,,,,,,,,,
CalCOFI,2007SR,055,57,2007_055u,23-Jul-2020 20:08:22,23-Jul-2020 12:08:22,34.31703,-120.80202,080.0 055.0,080.0,055.0,515.000,519.366,,6.6382,,6.6358,,6.6370,34.2801,,34.2803,34.2818,,34.2834,34.2819,0.4148,,0.4157,0.3904,2.1158,,1.1098,0.8311,0.6108,18.040,18.3439,35.9847,92.017,,53.3523,44.6685,0.0336,,,,-99.0,,-99.0,-99.0,26.9071,,26.9088,,0.6447,85.1144,,7.539,,2.1289E+03,,6.7364E-02,,6.5905,6.5880,0.8738,,6.065,30.933,515,6.638,34.2838,0.404,17.62,,,36.74,0.00,0.00,3.07,70.41
CalCOFI,2007SR,055,57,2007_055u,23-Jul-2020 20:08:25,23-Jul-2020 12:08:25,34.31704,-120.80200,080.0 055.0,080.0,055.0,514.000,518.356,,6.6332,,6.6332,,6.6332,34.2804,,34.2806,34.2819,,34.2835,34.2821,0.4148,,0.4157,0.3904,2.1109,,1.0982,0.8177,0.6041,18.040,18.3439,35.9847,91.804,,52.9451,44.4649,0.0328,,,,-99.0,,-99.0,-99.0,26.9080,,26.9092,,0.6458,85.0915,,7.539,,2.1055E+03,,7.1255E-02,,6.5855,6.5855,0.8739,,6.064,30.859,,,,,,,,,,,,
CalCOFI,2007SR,055,57,2007_055u,23-Jul-2020 20:08:27,23-Jul-2020 12:08:27,34.31704,-120.80201,080.0 055.0,080.0,055.0,513.000,517.346,,6.6384,,6.6382,,6.6383,34.2801,,34.2803,34.2815,,34.2831,34.2817,0.4172,,0.4182,0.3930,2.1106,,1.0974,0.8169,0.6050,18.146,18.4545,36.0671,91.789,,52.9165,44.4918,0.0329,,,,-99.0,,-99.0,-99.0,26.9070,,26.9082,,0.6441,85.1270,,7.539,,2.1371E+03,,6.3080E-02,,6.5908,6.5906,0.8739,,6.100,30.858,,,,,,,,,,,,
CalCOFI,2007SR,055,57,2007_055u,23-Jul-2020 20:08:28,23-Jul-2020 12:08:28,34.31704,-120.80202,080.0 055.0,080.0,055.0,512.000,516.337,,6.6401,,6.6399,,6.6400,34.2801,,34.2803,34.2815,,34.2831,34.2817,0.4237,,0.4250,0.3998,2.1113,,1.0991,0.8188,0.6093,18.429,18.7499,36.2871,91.822,,52.9795,44.6333,0.0329,,,,-99.0,,-99.0,-99.0,26.9068,,26.9079,,0.6452,85.1032,,7.540,,2.1327E+03,,6.0188E-02,,6.5926,6.5924,0.8739,,6.196,30.870,,,,,,,,,,,,
CalCOFI,2007SR,055,57,2007_055u,23-Jul-2020 20:08:29,23-Jul-2020 12:08:29,34.31704,-120.80202,080.0 055.0,080.0,055.0,511.000,515.327,,6.6536,,6.6528,,6.6532,34.2793,,34.2795,34.2811,,34.2827,34.2811,0.4217,,0.4229,0.3977,2.1019,,1.0767,0.7930,0.5954,18.339,18.6560,36.2171,91.413,,52.1978,44.2075,0.0329,,,,-99.0,,-99.0,-99.0,26.9044,,26.9059,,0.6445,85.1186,,7.539,,2.1144E+03,,6.7266E-02,,6.6061,6.6053,0.8739,,6.167,30.742,,,,,,,,,,,,
CalCOFI,2007SR,055,57,2007_055u,23-Jul-2020 20:08:30,23-Jul-2020 12:08:30,34.31704,-120.80202,080.0 055.0,080.0,055.0,510.000,514.317,,6.6607,,6.6617,,6.6612,34.2788,,34.2790,34.2803,,34.2819,34.2805,0.4259,,0.4273,0.4021,2.1055,,1.0853,0.8029,0.6025,18.521,18.8460,36.3586,91.569,,52.4959,44.4273,0.0330,,,,-99.0,,-99.0,-99.0,26.9031,,26.9041,,0.6454,85.0987,,7.539,,2.0952E+03,,6.4809E-02,,6.6133,6.6143,0.8739,,6.230,30.800,,,,,,,,,,,,
CalCOFI,2007SR,055,57,2007_055u,23-Jul-2020 20:08:31,23-Jul-2020 12:08:31,34.31704,-120.80202,080.0 055.0,080.0,055.0,509.000,513.308,,6.6669,,6.6675,,6.6672,34.2785,,34.2787,34.2800,,34.2816,34.2802,0.4294,,0.4310,0.4058,2.1028,,1.0788,0.7954,0.6006,18.674,19.0057,36.4775,91.450,,52.2685,44.3730,0.0336,,,,-99.0,,-99.0,-99.0,26.9020,,26.9031,,0.6452,85.1018,,7.539,,2.0751E+03,,6.0245E-02,,6.6196,6.6202,0.8739,,6.282,30.764,,,,,,,,,,,,
CalCOFI,2007SR,055,57,2007_055u,23-Jul-2020 20:08:32,23-Jul-2020 12:08:32,34.31704,-120.80202,080.0 055.0,080.0,055.0,508.000,512.298,,6.6724,,6.6731,,6.6728,34.2784,,34.2786,34.2800,,34.2816,34.2801,0.4320,,0.4337,0.4086,2.1038,,1.0812,0.7982,0.6034,18.788,19.1247,36.5661,91.492,,52.3488,44.4575,0.0330,,,,-99.0,,-99.0,-99.0,26.9012,,26.9023,,0.6462,85.0829,,7.540,,2.0510E+03,,5.5393E-02,,6.6251,6.6259,0.8739,,6.321,30.782,,,,,,,,,,,,
CalCOFI,2007SR,055,57,2007_055u,23-Jul-2020 20:08:33,23-Jul-2020 12:08:33,34.31704,-120.80202,080.0 055.0,080.0,055.0,507.000,511.288,,6.6965,,6.7010,,6.6988,34.2789,,34.2791,34.2807,,34.2823,34.2807,0.4389,,0.4409,0.4159,2.0937,,1.0571,0.7704,0.5932,19.088,19.4379,36.7992,91.056,,51.5154,44.1573,0.0326,,,,-99.0,,-99.0,-99.0,26.8983,,26.8991,,0.6450,85.1075,,7.540,,2.0277E+03,,6.0918E-02,,6.6492,6.6537,0.8739,,6.426,30.655,,,,,,,,,,,,
CalCOFI,2007SR,055,57,2007_055u,23-Jul-2020 20:08:34,23-Jul-2020 12:08:34,34.31704,-120.80202,080.0 055.0,080.0,055.0,506.000,510.278,,6.7283,,6.7299,,6.7291,34.2773,,34.2775,34.2790,,34.2806,34.2791,0.4414,,0.4435,0.4185,2.0931,,1.0557,0.7688,0.5937,19.197,19.5516,36.8839,91.031,,51.4676,44.1758,0.0330,,,,-99.0,,-99.0,-99.0,26.8928,,26.8939,,0.6454,85.0984,,7.540,,2.0198E+03,,5.6057E-02,,6.6811,6.6826,0.8739,,6.467,30.667,,,,,,,,,,,,
CalCOFI,2007SR,055,57,2007_055u,23-Jul-2020 20:08:35,23-Jul-2020 12:08:35,34.31704,-120.80202,080.0 055.0,080.0,055.0,505.000,509.269,,6.7379,,6.7390,,6.7385,34.2772,,34.2774,34.2784,,34.2800,34.2787,0.4443,,0.4465,0.4216,2.0944,,1.0588,0.7724,0.5970,19.322,19.6821,36.9811,91.085,,51.5708,44.2760,0.0330,,,,-99.0,,-99.0,-99.0,26.8914,,26.8923,,0.6455,85.0965,,7.540,,2.0129E+03,,5.6087E-02,,6.6907,6.6918,0.8739,,6.510,30.691,,,,,,,,,,,,
CalCOFI,2007SR,055,57,2007_055u,23-Jul-2020 20:08:36,23-Jul-2020 12:08:36,34.31704,-120.80202,080.0 055.0,080.0,055.0,504.000,508.259,,6.7490,,6.7508,,6.7499,34.2774,,34.2776,34.2788,,34.2804,34.2790,0.4458,,0.4481,0.4232,2.0919,,1.0528,0.7655,0.5944,19.389,19.7521,37.0331,90.979,,51.3682,44.2007,0.0326,,,,-99.0,,-99.0,-99.0,26.8901,,26.8909,,0.6457,85.0925,,7.540,,2.0045E+03,,6.0753E-02,,6.7019,6.7036,0.8739,,6.535,30.664,,,,,,,,,,,,
CalCOFI,2007SR,055,57,2007_055u,23-Jul-2020 20:08:37,23-Jul-2020 12:08:37,34.31704,-120.80202,080.0 055.0,080.0,055.0,503.000,507.249,,6.7623,,6.7626,,6.7625,34.2767,,34.2769,34.2781,,34.2797,34.2783,0.4473,,0.4497,0.4247,2.0854,,1.0373,0.7476,0.5862,19.456,19.8220,37.0852,90.694,,50.8234,43.9543,0.0332,,,,-99.0,,-99.0,-99.0,26.8878,,26.8888,,0.6461,85.0841,,7.541,,2.0046E+03,,5.8586E-02,,6.7152,6.7155,0.8739,,6.559,30.576,,,,,,,,,,,,
CalCOFI,2007SR,055,57,2007_055u,23-Jul-2020 20:08:38,23-Jul-2020 12:08:38,34.31704,-120.80202,080.0 055.0,080.0,055.0,502.000,506.240,,6.7692,,6.7703,,6.7698,34.2766,,34.2768,34.2781,,34.2797,34.2783,0.4501,,0.4526,0.4277,2.0895,,1.0471,0.7589,0.5933,19.576,19.9473,37.1785,90.873,,51.1656,44.1721,0.0327,,,,-99.0,,-99.0,-99.0,26.8867,,26.8877,,0.6462,85.0828,,7.540,,2.0066E+03,,5.0202E-02,,6.7221,6.7233,0.8739,,6.600,30.642,,,,,,,,,,,,
CalCOFI,2007SR,055,57,2007_055u,23-Jul-2020 20:08:39,23-Jul-2020 12:08:39,34.31704,-120.80202,080.0 055.0,080.0,055.0,501.000,505.230,,6.7793,,6.7817,,6.7805,34.2766,,34.2768,34.2781,,34.2797,34.2783,0.4518,,0.4544,0.4295,2.0840,,1.0339,0.7438,0.5867,19.649,20.0235,37.2352,90.633,,50.7068,43.9710,0.0324,,,,-99.0,,-99.0,-99.0,26.8853,,26.8862,,0.6463,85.0799,,7.541,,1.9966E+03,,5.4045E-02,,6.7323,6.7347,0.8739,,6.627,30.569,,,,,,,,,,,,
CalCOFI,2007SR,055,57,2007_055u,23-Jul-2020 20:08:40,23-Jul-2020 12:08:40,34.31704,-120.80202,080.0 055.0,080.0,055.0,500.000,504.220,,6.7901,,6.7899,,6.7900,34.2764,,34.2766,34.2777,,34.2793,34.2780,0.4512,,0.4538,0.4289,2.0851,,1.0366,0.7468,0.5879,19.625,19.9984,37.2165,90.685,,50.8062,44.0114,0.0332,,,,-99.0,,-99.0,-99.0,26.8838,,26.8848,,0.6452,85.1032,,7.541,,1.9816E+03,,5.0841E-02,,6.7432,6.7429,0.8739,,6.620,30.592,,,,,,,,,,,,
CalCOFI,2007SR,055,57,2007_055u,23-Jul-2020 20:08:42,23-Jul-2020 12:08:42,34.31704,-120.80202,080.0 055.0,080.0,055.0,499.000,503.211,,6.7934,,6.7940,,6.7937,34.2762,,34.2764,34.2774,,34.2790,34.2777,0.4513,,0.4539,0.4290,2.0837,,1.0332,0.7430,0.5860,19.628,20.0016,37.2189,90.621,,50.6839,43.9514,0.0324,,,,-99.0,,-99.0,-99.0,26.8831,,26.8840,,0.6458,85.0915,,7.541,,1.9688E+03,,4.8900E-02,,6.7465,6.7472,0.8739,,6.622,30.573,,,,,,,,,,,,
CalCOFI,2007SR,055,57,2007_055u,23-Jul-2020 20:08:43,23-Jul-2020 12:08:43,34.31704,-120.80202,080.0 055.0,080.0,055.0,498.000,502.201,,6.7950,,6.7950,,6.7950,34.2762,,34.2764,34.2774,,34.2790,34.2777,0.4560,,0.4588,0.4339,2.0789,,1.0218,0.7298,0.5819,19.832,20.2145,37.3774,90.413,,50.2863,43.8319,0.0326,,,,-99.0,,-99.0,-99.0,26.8829,,26.8839,,0.6452,85.1030,,7.541,,1.9580E+03,,5.2376E-02,,6.7483,6.7483,0.8739,,6.691,30.504,,,,,,,,,,,,
CalCOFI,2007SR,055,57,2007_055u,23-Jul-2020 20:08:44,23-Jul-2020 12:08:44,34.31704,-120.80202,080.0 055.0,080.0,055.0,497.000,501.192,,6.7960,,6.7961,,6.7961,34.2760,,34.2762,34.2772,,34.2788,34.2775,0.4541,,0.4568,0.4319,2.0835,,1.0327,0.7424,0.5872,19.751,20.1300,37.3145,90.614,,50.6705,43.9925,0.0328,,,,-99.0,,-99.0,-99.0,26.8826,,26.8836,,0.6457,85.0935,,7.541,,1.9530E+03,,5.3679E-02,,6.7493,6.7495,0.8739,,6.664,30.572,,,,,,,,,,,,
CalCOFI,2007SR,055,57,2007_055u,23-Jul-2020 20:08:44,23-Jul-2020 12:08:44,34.31704,-120.80202,080.0 055.0,080.0,055.0,496.000,500.182,,6.7972,,6.7977,,6.7975,34.2761,,34.2763,34.2771,,34.2787,34.2775,0.4517,,0.4543,0.4294,2.0812,,1.0272,0.7361,0.5828,19.647,20.0214,37.2336,90.512,,50.4755,43.8546,0.0334,,,,-99.0,,-99.0,-99.0,26.8825,,26.8832,,0.6477,85.0507,,7.541,,1.9518E+03,,4.9975E-02,,6.7506,6.7511,0.8739,,6.629,30.539,,,,,,,,,,,,
CalCOFI,2007SR,055,57,2007_055u,23-Jul-2020 20:08:45,23-Jul-2020 12:08:45,34.31704,-120.80202,080.0 055.0,080.0,055.0,495.000,499.172,,6.7983,,6.7985,,6.7984,34.2760,,34.2762,34.2772,,34.2788,34.2775,0.4517,,0.4543,0.4294,2.0777,,1.0189,0.7265,0.5780,19.644,20.0183,37.2313,90.363,,50.1907,43.7110,0.0324,,,,-99.0,,-99.0,-99.0,26.8823,,26.8832,,0.6457,85.0918,,7.541,,1.9571E+03,,4.9949E-02,,6.7519,6.7520,0.8739,,6.628,30.489,,,,,,,,,,,,
CalCOFI,2007SR,055,57,2007_055u,23-Jul-2020 20:08:46,23-Jul-2020 12:08:46,34.31704,-120.80202,080.0 055.0,080.0,055.0,494.000,498.163,,6.7987,,6.7988,,6.7988,34.2760,,34.2762,34.2772,,34.2788,34.2775,0.4516,,0.4542,0.4293,2.0813,,1.0275,0.7364,0.5829,19.641,20.0151,37.2290,90.517,,50.4851,43.8571,0.0322,,,,-99.0,,-99.0,-99.0,26.8822,,26.8831,,0.6463,85.0803,,7.541,,1.9610E+03,,5.0151E-02,,6.7523,6.7525,0.8739,,6.627,30.541,,,,,,,,,,,,
CalCOFI,2007SR,055,57,2007_055u,23-Jul-2020 20:08:47,23-Jul-2020 12:08:47,34.31704,-120.80202,080.0 055.0,080.0,055.0,493.000,497.153,,6.7992,,6.7994,,6.7993,34.2759,,34.2761,34.2772,,34.2788,34.2775,0.4528,,0.4554,0.4305,2.0771,,1.0175,0.7249,0.5777,19.694,20.0705,37.2702,90.334,,50.1353,43.7028,0.0330,,,,-99.0,,-99.0,-99.0,26.8820,,26.8830,,0.6466,85.0754,,7.541,,1.9643E+03,,5.3287E-02,,6.7529,6.7531,0.8739,,6.645,30.480,,,,,,,,,,,,
CalCOFI,2007SR,055,57,2007_055u,23-Jul-2020 20:08:48,23-Jul-2020 12:08:48,34.31704,-120.80202,080.0 055.0,080.0,055.0,492.000,496.143,,6.8006,,6.8006,,6.8006,34.2759,,34.2761,34.2771,,34.2787,34.2774,0.4541,,0.4568,0.4319,2.0779,,1.0194,0.7271,0.5795,19.750,20.1289,37.3137,90.369,,50.2022,43.7580,0.0326,,,,-99.0,,-99.0,-99.0,26.8818,,26.8827,,0.6461,85.0846,,7.541,,1.9714E+03,,5.0405E-02,,6.7545,6.7545,0.8739,,6.664,30.493,,,,,,,,,,,,
CalCOFI,2007SR,055,57,2007_055u,23-Jul-2020 20:08:49,23-Jul-2020 12:08:49,34.31704,-120.80202,080.0 055.0,080.0,055.0,491.000,495.134,,6.8022,,6.8021,,6.8022,34.2756,,34.2758,34.2769,,34.2785,34.2772,0.4586,,0.4615,0.4367,2.0769,,1.0170,0.7243,0.5805,19.945,20.3325,37.4652,90.328,,50.1238,43.7945,0.0333,,,,-99.0,,-99.0,-99.0,26.8814,,26.8824,,0.6463,85.0810,,7.541,,1.9859E+03,,5.3074E-02,,6.7561,6.7561,0.8739,,6.730,30.480,,,,,,,,,,,,
CalCOFI,2007SR,055,57,2007_055u,23-Jul-2020 20:08:50,23-Jul-2020 12:08:50,34.31704,-120.80202,080.0 055.0,080.0,055.0,490.000,494.124,,6.8030,,6.8031,,6.8031,34.2756,,34.2758,34.2769,,34.2785,34.2772,0.4578,,0.4607,0.4358,2.0771,,1.0175,0.7249,0.5804,19.909,20.2949,37.4373,90.336,,50.1391,43.7882,0.0332,,,,-99.0,,-99.0,-99.0,26.8812,,26.8823,,0.6461,85.0852,,7.541,,1.9986E+03,,5.4264E-02,,6.7570,6.7571,0.8739,,6.718,30.483,,,,,,,,,,,,
CalCOFI,2007SR,055,57,2007_055u,23-Jul-2020 20:08:51,23-Jul-2020 12:08:51,34.31704,-120.80202,080.0 055.0,080.0,055.0,489.000,493.114,,6.8099,,6.8108,,6.8104,34.2754,,34.2756,34.2767,,34.2783,34.2770,0.4633,,0.4664,0.4416,2.0763,,1.0156,0.7227,0.5822,20.149,20.5454,37.6238,90.302,,50.0741,43.8490,0.0339,,,,-99.0,,-99.0,-99.0,26.8802,,26.8811,,0.6469,85.0689,,7.541,,2.0087E+03,,5.8960E-02,,6.7640,6.7649,0.8739,,6.800,30.477,,,,,,,,,,,,
CalCOFI,2007SR,055,57,2007_055u,23-Jul-2020 20:08:53,23-Jul-2020 12:08:53,34.31704,-120.80202,080.0 055.0,080.0,055.0,488.000,492.105,,6.8186,,6.8184,,6.8185,34.2750,,34.2752,34.2765,,34.2781,34.2767,0.4666,,0.4699,0.4451,2.0756,,1.0139,0.7207,0.5829,20.294,20.6968,37.7365,90.271,,50.0149,43.8757,0.0339,,,,-99.0,,-99.0,-99.0,26.8787,,26.8799,,0.6464,85.0791,,7.541,,2.0140E+03,,5.5370E-02,,6.7728,6.7726,0.8739,,6.850,30.472,,,,,,,,,,,,
CalCOFI,2007SR,055,57,2007_055u,23-Jul-2020 20:08:53,23-Jul-2020 12:08:53,34.31704,-120.80202,080.0 055.0,080.0,055.0,487.000,491.095,,6.8292,,6.8290,,6.8291,34.2746,,34.2748,34.2760,,34.2776,34.2762,0.4763,,0.4800,0.4554,2.0694,,0.9991,0.7037,0.5796,20.713,21.1342,38.0621,89.999,,49.4949,43.7785,0.0330,,,,-99.0,,-99.0,-99.0,26.8769,,26.8780,,0.6462,85.0823,,7.541,,2.0140E+03,,5.4666E-02,,6.7834,6.7832,0.8739,,6.994,30.387,,,,,,,,,,,,
CalCOFI,2007SR,055,57,2007_055u,23-Jul-2020 20:08:54,23-Jul-2020 12:08:54,34.31704,-120.80202,080.0 055.0,080.0,055.0,486.000,490.086,,6.8409,,6.8415,,6.8412,34.2745,,34.2747,34.2762,,34.2778,34.2763,0.4798,,0.4836,0.4591,2.0694,,0.9991,0.7037,0.5814,20.867,21.2950,38.1818,89.999,,49.4949,43.8384,0.0332,,,,-99.0,,-99.0,-99.0,26.8752,,26.8765,,0.6468,85.0704,,7.542,,2.0224E+03,,5.6544E-02,,6.7952,6.7958,0.8739,,7.047,30.396,,,,,,,,,,,,
CalCOFI,2007SR,055,57,2007_055u,23-Jul-2020 20:08:55,23-Jul-2020 12:08:55,34.31704,-120.80202,080.0 055.0,080.0,055.0,485.000,489.076,,6.8678,,6.8694,,6.8686,34.2735,,34.2737,34.2750,,34.2766,34.2752,0.4857,,0.4898,0.4653,2.0722,,1.0058,0.7114,0.5884,21.125,21.5643,38.3823,90.123,,49.7320,44.0572,0.0324,,,,-99.0,,-99.0,-99.0,26.8708,,26.8718,,0.6464,85.0790,,7.542,,2.0378E+03,,5.5883E-02,,6.8221,6.8236,0.8739,,7.139,30.457,,,,,,,,,,,,
CalCOFI,2007SR,055,57,2007_055u,23-Jul-2020 20:08:56,23-Jul-2020 12:08:56,34.31704,-120.80202,080.0 055.0,080.0,055.0,484.000,488.066,,6.8832,,6.8856,,6.8844,34.2730,,34.2732,34.2745,,34.2761,34.2747,0.4874,,0.4916,0.4671,2.0602,,0.9771,0.6784,0.5728,21.197,21.6394,38.4382,89.602,,48.7361,43.5872,0.0330,,,,-99.0,,-99.0,-99.0,26.8683,,26.8692,,0.6463,85.0820,,7.543,,2.0493E+03,,5.1072E-02,,6.8375,6.8399,0.8739,,7.166,30.292,,,,,,,,,,,,
CalCOFI,2007SR,055,57,2007_055u,23-Jul-2020 20:08:57,23-Jul-2020 12:08:57,34.31704,-120.80202,080.0 055.0,080.0,055.0,483.000,487.057,,6.9022,,6.9025,,6.9024,34.2716,,34.2718,34.2729,,34.2745,34.2732,0.4858,,0.4899,0.4654,2.0651,,0.9888,0.6919,0.5787,21.127,21.5664,38.3838,89.816,,49.1451,43.7645,0.0326,,,,-99.0,,-99.0,-99.0,26.8646,,26.8656,,0.6477,85.0504,,7.544,,2.0602E+03,,4.5738E-02,,6.8565,6.8569,0.8739,,7.145,30.376,,,,,,,,,,,,
CalCOFI,2007SR,055,57,2007_055u,23-Jul-2020 20:08:59,23-Jul-2020 12:08:59,34.31704,-120.80202,080.0 055.0,080.0,055.0,482.000,486.047,,6.9067,,6.9068,,6.9068,34.2714,,34.2716,34.2726,,34.2742,34.2729,0.4899,,0.4942,0.4697,2.0646,,0.9876,0.6905,0.5801,21.305,21.7522,38.5222,89.795,,49.1050,43.8136,0.0331,,,,-99.0,,-99.0,-99.0,26.8638,,26.8648,,0.6464,85.0785,,7.545,,2.0702E+03,,5.1113E-02,,6.8611,6.8612,0.8739,,7.206,30.372,,,,,,,,,,,,
CalCOFI,2007SR,055,57,2007_055u,23-Jul-2020 20:09:00,23-Jul-2020 12:09:00,34.31704,-120.80202,080.0 055.0,080.0,055.0,481.000,485.038,,6.9087,,6.9085,,6.9086,34.2713,,34.2715,34.2726,,34.2742,34.2729,0.4897,,0.4940,0.4695,2.0643,,0.9869,0.6897,0.5796,21.298,21.7449,38.5167,89.779,,49.0744,43.7956,0.0332,,,,-99.0,,-99.0,-99.0,26.8635,,26.8645,,0.6471,85.0643,,7.546,,2.0916E+03,,4.4028E-02,,6.8632,6.8630,0.8739,,7.204,30.367,,,,,,,,,,,,
CalCOFI,2007SR,055,57,2007_055u,23-Jul-2020 20:09:01,23-Jul-2020 12:09:01,34.31704,-120.80202,080.0 055.0,080.0,055.0,480.000,484.028,,6.9116,,6.9119,,6.9118,34.2710,,34.2712,34.2722,,34.2738,34.2725,0.4935,,0.4980,0.4735,2.0638,,0.9857,0.6883,0.5809,21.463,21.9171,38.6450,89.760,,49.0381,43.8416,0.0320,,,,-99.0,,-99.0,-99.0,26.8628,,26.8637,,0.6484,85.0357,,7.546,,2.1274E+03,,5.0726E-02,,6.8662,6.8665,0.8739,,7.260,30.363,,,,,,,,,,,,
CalCOFI,2007SR,055,57,2007_055u,23-Jul-2020 20:09:02,23-Jul-2020 12:09:02,34.31704,-120.80202,080.0 055.0,080.0,055.0,479.000,483.018,,6.9143,,6.9147,,6.9145,34.2709,,34.2711,34.2720,,34.2736,34.2724,0.5015,,0.5063,0.4820,2.0628,,0.9833,0.6856,0.5838,21.812,22.2814,38.9162,89.716,,48.9540,43.9351,0.0328,,,,-99.0,,-99.0,-99.0,26.8623,,26.8632,,0.6473,85.0603,,7.546,,2.1601E+03,,4.7826E-02,,6.8690,6.8694,0.8739,,7.379,30.350,,,,,,,,,,,,
CalCOFI,2007SR,055,57,2007_055u,23-Jul-2020 20:09:03,23-Jul-2020 12:09:03,34.31704,-120.80202,080.0 055.0,080.0,055.0,478.000,482.009,,6.9181,,6.9187,,6.9184,34.2707,,34.2709,34.2719,,34.2735,34.2722,0.5098,,0.5150,0.4907,2.0612,,0.9795,0.6812,0.5860,22.172,22.6573,39.1960,89.643,,48.8145,44.0053,0.0327,,,,-99.0,,-99.0,-99.0,26.8617,,26.8626,,0.6486,85.0322,,7.546,,2.1868E+03,,4.4245E-02,,6.8728,6.8734,0.8739,,7.501,30.328,,,,,,,,,,,,
CalCOFI,2007SR,055,57,2007_055u,23-Jul-2020 20:09:04,23-Jul-2020 12:09:04,34.31704,-120.80202,080.0 055.0,080.0,055.0,477.000,480.999,,6.9320,,6.9352,,6.9336,34.2702,,34.2704,34.2714,,34.2730,34.2717,0.5209,,0.5266,0.5025,2.0604,,0.9776,0.6790,0.5908,22.655,23.1615,39.5713,89.609,,48.7495,44.1604,0.0340,,,,-99.0,,-99.0,-99.0,26.8594,,26.8599,,0.6472,85.0620,,7.546,,2.1996E+03,,4.4612E-02,,6.8868,6.8900,0.8739,,7.667,30.328,,,,,,,,,,,,
CalCOFI,2007SR,055,57,2007_055u,23-Jul-2020 20:09:04,23-Jul-2020 12:09:04,34.31704,-120.80202,080.0 055.0,080.0,055.0,476.000,479.990,,6.9580,,6.9629,,6.9605,34.2684,,34.2686,34.2706,,34.2722,34.2704,0.5238,,0.5296,0.5055,2.0565,,0.9683,0.6683,0.5869,22.782,23.2940,39.6700,89.440,,48.4264,44.0482,0.0325,,,,-99.0,,-99.0,-99.0,26.8544,,26.8555,,0.6473,85.0603,,7.546,,2.2088E+03,,4.6509E-02,,6.9128,6.9177,0.8739,,7.715,30.290,,,,,,,,,,,,
CalCOFI,2007SR,055,57,2007_055u,23-Jul-2020 20:09:05,23-Jul-2020 12:09:05,34.31704,-120.80202,080.0 055.0,080.0,055.0,475.000,478.980,,6.9856,,6.9924,,6.9890,34.2667,,34.2669,34.2673,,34.2689,34.2679,0.5248,,0.5307,0.5066,2.0580,,0.9719,0.6724,0.5895,22.825,23.3389,39.7035,89.507,,48.5545,44.1290,0.0323,,,,-99.0,,-99.0,-99.0,26.8493,,26.8488,,0.6479,85.0468,,7.546,,2.2359E+03,,4.2717E-02,,6.9404,6.9472,0.8739,,7.734,30.332,,,,,,,,,,,,
CalCOFI,2007SR,055,57,2007_055u,23-Jul-2020 20:09:06,23-Jul-2020 12:09:06,34.31704,-120.80202,080.0 055.0,080.0,055.0,474.000,477.971,,6.9989,,7.0001,,6.9995,34.2652,,34.2654,34.2663,,34.2679,34.2667,0.5255,,0.5314,0.5073,2.0570,,0.9695,0.6696,0.5885,22.854,23.3692,39.7260,89.464,,48.4723,44.0992,0.0328,,,,-99.0,,-99.0,-99.0,26.8463,,26.8470,,0.6483,85.0379,,7.546,,2.2798E+03,,4.4503E-02,,6.9538,6.9549,0.8739,,7.746,30.323,,,,,,,,,,,,
CalCOFI,2007SR,055,57,2007_055u,23-Jul-2020 20:09:08,23-Jul-2020 12:09:08,34.31704,-120.80202,080.0 055.0,080.0,055.0,473.000,476.961,,7.0026,,7.0023,,7.0025,34.2647,,34.2649,34.2660,,34.2676,34.2663,0.5260,,0.5319,0.5078,2.0551,,0.9649,0.6644,0.5861,22.876,23.3922,39.7431,89.379,,48.3098,44.0265,0.0323,,,,-99.0,,-99.0,-99.0,26.8454,,26.8464,,0.6487,85.0294,,7.546,,2.3065E+03,,4.0920E-02,,6.9575,6.9572,0.8739,,7.754,30.295,,,,,,,,,,,,
CalCOFI,2007SR,055,57,2007_055u,23-Jul-2020 20:09:09,23-Jul-2020 12:09:09,34.31704,-120.80202,080.0 055.0,080.0,055.0,472.000,475.952,,7.0045,,7.0056,,7.0051,34.2647,,34.2649,34.2657,,34.2673,34.2661,0.5323,,0.5385,0.5145,2.0488,,0.9499,0.6471,0.5808,23.152,23.6803,39.9576,89.106,,47.7880,43.8728,0.0333,,,,-99.0,,-99.0,-99.0,26.8451,,26.8457,,0.6483,85.0388,,7.546,,2.3090E+03,,4.0679E-02,,6.9595,6.9606,0.8739,,7.848,30.205,,,,,,,,,,,,
CalCOFI,2007SR,055,57,2007_055u,23-Jul-2020 20:09:10,23-Jul-2020 12:09:10,34.31704,-120.80202,080.0 055.0,080.0,055.0,471.000,474.942,,7.0077,,7.0088,,7.0083,34.2644,,34.2646,34.2656,,34.2672,34.2659,0.5380,,0.5445,0.5205,2.0540,,0.9623,0.6614,0.5910,23.397,23.9360,40.1480,89.335,,48.2257,44.1869,0.0326,,,,-99.0,,-99.0,-99.0,26.8444,,26.8452,,0.6512,84.9765,,7.547,,2.3092E+03,,4.3223E-02,,6.9628,6.9639,0.8739,,7.931,30.285,,,,,,,,,,,,
CalCOFI,2007SR,055,57,2007_055u,23-Jul-2020 20:09:11,23-Jul-2020 12:09:11,34.31704,-120.80202,080.0 055.0,080.0,055.0,470.000,473.933,,7.0191,,7.0217,,7.0204,34.2641,,34.2643,34.2653,,34.2669,34.2656,0.5461,,0.5529,0.5291,2.0523,,0.9583,0.6567,0.5929,23.750,24.3045,40.4223,89.262,,48.0862,44.2543,0.0329,,,,-99.0,,-99.0,-99.0,26.8426,,26.8432,,0.6473,85.0606,,7.547,,2.3148E+03,,3.8295E-02,,6.9743,6.9769,0.8739,,8.053,30.269,,,,,,,,,,,,
CalCOFI,2007SR,055,57,2007_055u,23-Jul-2020 20:09:12,23-Jul-2020 12:09:12,34.31704,-120.80202,080.0 055.0,080.0,055.0,469.000,472.923,,7.0416,,7.0469,,7.0443,34.2621,,34.2623,34.2634,,34.2650,34.2637,0.5559,,0.5632,0.5394,2.0483,,0.9487,0.6458,0.5926,24.178,24.7513,40.7549,89.086,,47.7498,44.2524,0.0334,,,,-99.0,,-99.0,-99.0,26.8379,,26.8382,,0.6477,85.0509,,7.547,,2.3466E+03,,4.3368E-02,,6.9968,7.0021,0.8739,,8.202,30.226,,,,,,,,,,,,
CalCOFI,2007SR,055,57,2007_055u,23-Jul-2020 20:09:13,23-Jul-2020 12:09:13,34.31704,-120.80202,080.0 055.0,080.0,055.0,468.000,471.914,,7.0566,,7.0634,,7.0600,34.2613,,34.2615,34.2621,,34.2637,34.2626,0.5627,,0.5703,0.5466,2.0538,,0.9618,0.6609,0.6038,24.475,25.0614,40.9858,89.326,,48.2085,44.5972,0.0316,,,,-99.0,,-99.0,-99.0,26.8353,,26.8349,,0.6464,85.0788,,7.549,,2.3813E+03,,3.9312E-02,,7.0118,7.0186,0.8739,,8.306,30.318,,,,,,,,,,,,
CalCOFI,2007SR,055,57,2007_055u,23-Jul-2020 20:09:14,23-Jul-2020 12:09:14,34.31704,-120.80202,080.0 055.0,080.0,055.0,467.000,470.904,,7.0778,,7.0831,,7.0805,34.2589,,34.2591,34.2601,,34.2617,34.2604,0.5668,,0.5745,0.5509,2.0529,,0.9597,0.6584,0.6047,24.653,25.2472,41.1241,89.288,,48.1359,44.6300,0.0319,,,,-99.0,,-99.0,-99.0,26.8304,,26.8306,,0.6483,85.0382,,7.550,,2.3879E+03,,4.2402E-02,,7.0331,7.0384,0.8739,,8.370,30.319,,,,,,,,,,,,
CalCOFI,2007SR,055,57,2007_055u,23-Jul-2020 20:09:15,23-Jul-2020 12:09:15,34.31704,-120.80202,080.0 055.0,080.0,055.0,466.000,469.895,,7.0878,,7.0917,,7.0898,34.2587,,34.2589,34.2595,,34.2611,34.2600,0.5673,,0.5751,0.5515,2.0540,,0.9623,0.6614,0.6065,24.672,25.2670,41.1389,89.334,,48.2238,44.6814,0.0328,,,,-99.0,,-99.0,-99.0,26.8289,,26.8289,,0.6491,85.0212,,7.550,,2.3881E+03,,4.2446E-02,,7.0431,7.0471,0.8739,,8.378,30.340,,,,,,,,,,,,
CalCOFI,2007SR,055,57,2007_055u,23-Jul-2020 20:09:16,23-Jul-2020 12:09:16,34.31704,-120.80202,080.0 055.0,080.0,055.0,465.000,468.885,,7.0953,,7.0964,,7.0959,34.2577,,34.2579,34.2588,,34.2604,34.2592,0.5697,,0.5776,0.5540,2.0503,,0.9535,0.6512,0.6026,24.778,25.3777,41.2212,89.176,,47.9218,44.5715,0.0338,,,,-99.0,,-99.0,-99.0,26.8270,,26.8278,,0.6476,85.0532,,7.550,,2.4116E+03,,3.6357E-02,,7.0507,7.0518,0.8739,,8.416,30.290,,,,,,,,,,,,